NSS-12

Last updated on Jan. 24, 2021, 6:18 a.m. UTC

1 36032U 09058A   21023.87495840  .00000085  00000-0  00000-0 0  9992
2 36032   0.0552 284.9740 0003004  20.7622 189.6468  1.00271398 41163
UTC
Height (km)
Latitude
Longitude
Inclination
Orbital Period
UTC large
Height (km)
Speed (km/s)
/
Latitude / Longitude
Inclination (degrees)
Orbital Period (minutes)
Azimuth
Elevation
Range (km)
Doppler Factor
iOS Compass Heading
iOS Angle

Next 30 passes for location: Hong Kong

Rise time Rise Azimuth (degrees) Set time Set Azimuth (degrees) Duration Max altitude (degrees)

No matching passes for this satellites